Back to catalog

COSMOS 375 DEB

AliveLEO
NORAD 4712·DEBRIS·🇷🇺 Russia

Launched Oct 30, 1970 from Baikonur Cosmodrome

Loading…

Next Passes (next 24 hours)

TLE

FreshSource: Space-Track

Epoch: Sep 14, 2026, 10:09 UTC

1 04712U 70091T   26257.42341485  .00003118  00000-0  56701-3 0  9999
2 04712  62.7617 142.6119 0464712 164.7888 196.7707 14.16069571756628

Track COSMOS 375 DEB in real time with AllMySat

Download on the App Store